Time,TemperatureF,DewpointF,PressureIn,WindDirection,WindDirectionDegrees,WindSpeedMPH,WindSpeedGustMPH,Humidity,HourlyPrecipIn,Conditions,Clouds,dailyrainin,SoftwareType,DateUTC
2018-01-18 00:07:00,12.0,8.0,-100.00,ESE,105,4.0,-999.0,80,-99.99,,,-99.99,,2018-01-18 05:07:00,
2018-01-18 00:36:00,12.0,7.0,-100.00,ESE,118,3.0,-999.0,80,-99.99,,,-99.99,,2018-01-18 05:36:00,
2018-01-18 01:08:00,12.0,7.0,-100.00,ESE,114,3.0,-999.0,80,-99.99,,,-99.99,,2018-01-18 06:08:00,
2018-01-18 01:38:00,11.0,6.0,-100.00,East,87,5.0,-999.0,80,-99.99,,,-99.99,,2018-01-18 06:38:00,
2018-01-18 02:07:00,11.0,6.0,-100.00,SE,128,3.0,-999.0,81,-99.99,,,-99.99,,2018-01-18 07:07:00,
2018-01-18 02:35:00,11.0,6.0,-100.00,ESE,112,3.0,-999.0,81,-99.99,,,-99.99,,2018-01-18 07:35:00,
2018-01-18 03:06:00,10.0,6.0,-100.00,East,100,3.0,-999.0,82,-99.99,,,-99.99,,2018-01-18 08:06:00,
2018-01-18 03:36:00,9.0,5.0,-100.00,SE,127,4.0,-999.0,82,-99.99,,,-99.99,,2018-01-18 08:36:00,
2018-01-18 04:36:00,9.0,5.0,-100.00,ESE,123,4.0,-999.0,82,-99.99,,,-99.99,,2018-01-18 09:36:00,
2018-01-18 05:07:00,9.0,5.0,-100.00,SE,127,4.0,-999.0,82,-99.99,,,-99.99,,2018-01-18 10:07:00,
2018-01-18 05:36:00,9.0,5.0,-100.00,ESE,114,4.0,-999.0,82,-99.99,,,-99.99,,2018-01-18 10:36:00,
2018-01-18 06:08:00,9.0,5.0,-100.00,ESE,112,5.0,-999.0,81,-99.99,,,-99.99,,2018-01-18 11:08:00,
2018-01-18 06:36:00,9.0,5.0,-100.00,ESE,103,3.0,-999.0,81,-99.99,,,-99.99,,2018-01-18 11:36:00,
2018-01-18 07:06:00,9.0,5.0,-100.00,ESE,109,4.0,-999.0,81,-99.99,,,-99.99,,2018-01-18 12:06:00,
2018-01-18 07:36:00,10.0,5.0,-100.00,ESE,116,5.0,-999.0,80,-99.99,,,-99.99,,2018-01-18 12:36:00,
2018-01-18 08:36:00,10.0,5.0,-100.00,East,86,4.0,-999.0,80,-99.99,,,-99.99,,2018-01-18 13:36:00,
2018-01-18 09:07:00,12.0,6.0,-100.00,East,99,4.0,-999.0,78,-99.99,,,-99.99,,2018-01-18 14:07:00,
2018-01-18 09:36:00,14.0,8.0,-100.00,ESE,118,4.0,-999.0,75,-99.99,,,-99.99,,2018-01-18 14:36:00,
2018-01-18 10:07:00,17.0,9.0,-100.00,SE,127,6.0,-999.0,69,-99.99,,,-99.99,,2018-01-18 15:07:00,
2018-01-18 10:36:00,18.0,9.0,-100.00,ESE,122,7.0,-999.0,65,-99.99,,,-99.99,,2018-01-18 15:36:00,
2018-01-18 11:07:00,20.0,8.0,-100.00,SE,133,5.0,-999.0,59,-99.99,,,-99.99,,2018-01-18 16:07:00,
2018-01-18 12:07:00,23.0,9.0,-100.00,SSE,150,8.0,-999.0,55,-99.99,,,-99.99,,2018-01-18 17:07:00,
2018-01-18 12:37:00,24.0,10.0,-100.00,SE,146,7.0,-999.0,54,-99.99,,,-99.99,,2018-01-18 17:37:00,
2018-01-18 15:08:00,30.0,14.0,-100.00,East,95,6.0,-999.0,49,-99.99,,,-99.99,,2018-01-18 20:08:00,
2018-01-18 15:38:00,31.0,13.0,-100.00,ESE,111,6.0,-999.0,47,-99.99,,,-99.99,,2018-01-18 20:38:00,
2018-01-18 16:08:00,32.0,14.0,-100.00,ESE,112,5.0,-999.0,47,-99.99,,,-99.99,,2018-01-18 21:08:00,
2018-01-18 16:37:00,32.0,14.0,-100.00,ESE,114,5.0,-999.0,46,-99.99,,,-99.99,,2018-01-18 21:37:00,
2018-01-18 17:08:00,31.0,12.0,-100.00,ESE,123,6.0,-999.0,45,-99.99,,,-99.99,,2018-01-18 22:08:00,
2018-01-18 17:37:00,31.0,13.0,-100.00,SE,125,5.0,-999.0,46,-99.99,,,-99.99,,2018-01-18 22:37:00,
2018-01-18 18:08:00,29.0,12.0,-100.00,ESE,102,5.0,-999.0,49,-99.99,,,-99.99,,2018-01-18 23:08:00,
2018-01-18 18:38:00,28.0,12.0,-100.00,ESE,116,4.0,-999.0,50,-99.99,,,-99.99,,2018-01-18 23:38:00,